Location: Churchill Northern Studies Centre
(58.7378°N, 93.8201°W)
Time: 07:35:33
(UTC-05:00)

Envisat - Pass Details

Date: 16 October 2017
Orbit: 764 x 766 km, 98.2° (Epoch: 20 October)

Event Time Altitude Azimuth Distance (km) Brightness Sun altitude
Exits shadow 19:46:16 14° 131° (SE) 2,048 4.7 -13.8°
Maximum altitude 19:50:24 46° 62° (ENE) 1,033 3.3 -14.3°
Drops below altitude 10° 19:55:15 10° 351° (N) 2,317 5.7 -15.0°
Sets 19:57:38 0° 345° (NNW) 3,248 6.6 -15.3°
